Weather History for Marshall, MI

Change the Weather History Date:

Friday, October 19, 2012

  Actual Average (KBTL) Record (KBTL)
Temperature  
Mean Temperature 46 °F 49 °F  
Max Temperature 49 °F 60 °F 70 °F (2000)
Min Temperature 43 °F 38 °F 30 °F (2014)
Degree Days  
Heating Degree Days 19 16  
Month to date heating degree days 251  
Since 1 July heating degree days 448  
Cooling Degree Days 0 0  
Month to date cooling degree days 2  
Year to date cooling degree days 575  
Moisture  
Dew Point 42 °F    
Average Humidity 88    
Maximum Humidity 93    
Minimum Humidity 81    
Precipitation  
Precipitation 0.00 in 0.10 in 0.67 in (2011)
Month to date precipitation 1.96  
Year to date precipitation 27.15  
Sea Level Pressure  
Sea Level Pressure 29.55 in    
Wind  
Wind Speed 3 mph (SSE)    
Max Wind Speed 10 mph    
Max Gust Speed 18 mph    
Visibility 10 miles    
Events Rain    
T = Trace of Precipitation, MM = Missing Value Source: NWS Daily Summary

Daily Weather History Graph

Daily Weather History Graph

Search for Another Location

Airport:

Trip Planner

Search our weather history database for the weather conditions in past years. The results will help you decide how hot, cold, wet, or windy it might be!

Date:

Astronomy

Oct. 19, 2012 Rise Set
Actual Time 7:57 AM EDT 6:50 PM EDT
Civil Twilight 7:29 AM EDT 7:19 PM EDT
Nautical Twilight 6:56 AM EDT 7:51 PM EDT
Astronomical Twilight 6:24 AM EDT 8:24 PM EDT
Moon 12:43 PM EDT (10/19) 10:24 PM EDT (10/19)
Length of Visible Light 11h 49m
Length of Day
10h 53m
Waxing Crescent, 23% of the Moon is Illuminated
Oct 19
Waxing Crescent
Oct 21
First Quarter
Oct 29
Full
Nov 6
Last Quarter
Nov 13
New

Hourly Weather History & Observations

Time (EDT) Temp. Windchill Dew Point Humidity Pressure Visibility Wind Dir Wind Speed Gust Speed Precip Events Conditions
12:14 AM 43.9 °F - 38.7 °F 82% 29.63 in 10.0 mi Calm Calm - N/A   Mostly Cloudy
12:33 AM 43.3 °F - 38.7 °F 84% 29.62 in 10.0 mi Calm Calm - N/A   Overcast
12:53 AM 43.7 °F - 38.7 °F 82% 29.62 in 10.0 mi Calm Calm - N/A   Mostly Cloudy
1:14 AM 44.2 °F - 39.0 °F 82% 29.61 in 10.0 mi Calm Calm - N/A   Mostly Cloudy
1:33 AM 44.8 °F - 39.2 °F 81% 29.61 in 10.0 mi Calm Calm - N/A   Overcast
1:53 AM 44.8 °F - 39.6 °F 82% 29.60 in 10.0 mi Calm Calm - N/A   Overcast
2:13 AM 45.0 °F - 39.6 °F 81% 29.60 in 10.0 mi Calm Calm - N/A   Overcast
2:54 AM 44.8 °F - 39.4 °F 81% 29.58 in 10.0 mi Calm Calm - N/A   Mostly Cloudy
3:13 AM 44.2 °F - 39.2 °F 82% 29.58 in 10.0 mi Calm Calm - N/A   Mostly Cloudy
3:34 AM 44.4 °F - 39.2 °F 82% 29.58 in 10.0 mi Calm Calm - N/A   Overcast
3:54 AM 44.4 °F - 39.4 °F 82% 29.56 in 10.0 mi Calm Calm - N/A   Overcast
4:13 AM 43.9 °F - 39.6 °F 85% 29.56 in 10.0 mi Calm Calm - N/A   Overcast
4:34 AM 43.3 °F 41.7 °F 39.4 °F 86% 29.55 in 10.0 mi East 3.5 mph - N/A   Overcast
4:54 AM 43.2 °F 41.5 °F 39.6 °F 87% 29.55 in 10.0 mi East 3.5 mph - N/A   Mostly Cloudy
5:13 AM 43.3 °F - 39.6 °F 87% 29.55 in 10.0 mi Calm Calm - N/A   Overcast
5:34 AM 43.3 °F - 39.6 °F 87% 29.55 in 10.0 mi Calm Calm - N/A   Overcast
5:54 AM 43.7 °F 41.1 °F 39.9 °F 87% 29.55 in 10.0 mi East 4.6 mph - N/A   Light Drizzle
6:13 AM 43.9 °F 42.3 °F 39.9 °F 86% 29.54 in 10.0 mi East 3.5 mph - N/A   Overcast
6:34 AM 43.9 °F - 39.6 °F 85% 29.54 in 10.0 mi Calm Calm - N/A   Overcast
6:53 AM 43.9 °F 42.3 °F 39.9 °F 86% 29.54 in 10.0 mi East 3.5 mph - N/A   Light Drizzle
7:13 AM 43.7 °F 41.1 °F 40.1 °F 87% 29.54 in 10.0 mi East 4.6 mph - N/A Rain Light Rain
7:34 AM 43.9 °F 39.3 °F 40.3 °F 87% 29.53 in 10.0 mi ESE 8.1 mph - N/A Rain Light Rain
7:53 AM 44.1 °F 41.5 °F 40.5 °F 87% 29.53 in 10.0 mi SSE 4.6 mph - N/A Rain Rain
8:13 AM 44.2 °F 41.8 °F 40.6 °F 87% 29.54 in 10.0 mi SE 4.6 mph - N/A Rain Rain
8:34 AM 43.9 °F 40.5 °F 40.8 °F 89% 29.54 in 10.0 mi ESE 5.8 mph - N/A Rain Light Rain
8:53 AM 43.9 °F 39.9 °F 41.0 °F 90% 29.53 in 10.0 mi ESE 6.9 mph - N/A Rain Light Rain
9:13 AM 43.9 °F 39.3 °F 41.2 °F 90% 29.54 in 10.0 mi ESE 8.1 mph - N/A Rain Light Rain
9:34 AM 44.2 °F 39.7 °F 41.4 °F 90% 29.53 in 10.0 mi ESE 8.1 mph - N/A Rain Rain
9:53 AM 44.4 °F 40.5 °F 41.7 °F 90% 29.53 in 10.0 mi SE 6.9 mph - N/A   Drizzle
10:13 AM 45.1 °F 40.8 °F 42.3 °F 90% 29.52 in 10.0 mi ESE 8.1 mph - N/A Rain Light Rain
10:23 AM 45.3 °F 41.6 °F 42.3 °F 89% 29.53 in 10.0 mi SE 6.9 mph - N/A   Light Drizzle
11:08 AM 46.0 °F 41.4 °F 42.8 °F 88% 29.52 in 10.0 mi SSE 9.2 mph - N/A Rain Rain
11:14 AM 46.0 °F 41.4 °F 43.0 °F 89% 29.52 in 10.0 mi SSE 9.2 mph - N/A Rain Light Rain
11:34 AM 46.0 °F 41.9 °F 42.6 °F 88% 29.52 in 10.0 mi SE 8.1 mph - N/A   Light Drizzle
11:53 AM 46.6 °F - 43.0 °F 87% 29.52 in 7.0 mi SSE 6.9 mph - N/A Rain Light Rain
12:14 PM 46.4 °F 42.4 °F 43.2 °F 88% 29.52 in 10.0 mi SSE 8.1 mph - N/A   Light Drizzle
12:33 PM 47.3 °F - 44.1 °F 88% 29.52 in 10.0 mi SSE 8.1 mph - N/A   Overcast
12:53 PM 48.0 °F - 44.4 °F 87% 29.53 in 10.0 mi South 4.6 mph - N/A   Overcast
1:14 PM 48.7 °F - 45.0 °F 87% 29.52 in 10.0 mi SSE 8.1 mph - N/A   Overcast
1:33 PM 48.4 °F - 44.4 °F 86% 29.52 in 7.0 mi SSE 9.2 mph - N/A   Overcast
1:54 PM 46.9 °F - 44.1 °F 90% 29.52 in 5.0 mi South 9.2 mph 18.4 mph N/A Rain Light Rain
2:13 PM 48.2 °F - 45.3 °F 90% 29.51 in 7.0 mi SSE 8.1 mph - N/A   Overcast
2:33 PM 47.8 °F - 45.1 °F 90% 29.51 in 10.0 mi SSE 6.9 mph - N/A Rain Rain
2:54 PM 48.2 °F - 45.3 °F 90% 29.51 in 10.0 mi SSE 6.9 mph - N/A Rain Light Rain
3:13 PM 48.4 °F - 45.3 °F 89% 29.51 in 10.0 mi SSE 5.8 mph - N/A Rain Light Rain
3:34 PM 48.4 °F - 45.3 °F 89% 29.51 in 10.0 mi SSE 5.8 mph - N/A Rain Light Rain
3:54 PM 48.9 °F - 45.7 °F 89% 29.52 in 10.0 mi South 5.8 mph - N/A   Overcast
4:13 PM 49.1 °F - 45.7 °F 88% 29.52 in 10.0 mi South 5.8 mph - N/A   Drizzle
4:34 PM 49.3 °F - 45.9 °F 88% 29.52 in 10.0 mi South 3.5 mph - N/A Rain Light Rain
4:54 PM 48.9 °F - 45.5 °F 88% 29.53 in 10.0 mi South 9.2 mph - N/A Rain Rain
5:13 PM 47.3 °F - 44.4 °F 90% 29.53 in 10.0 mi South 10.4 mph - N/A Rain Light Rain
5:30 PM 46.8 °F - 43.7 °F 89% 29.54 in 10.0 mi South 4.6 mph - N/A Rain Light Rain
5:54 PM 46.8 °F - 43.7 °F 89% 29.54 in 10.0 mi South 5.8 mph - N/A Rain Light Rain
6:14 PM 46.8 °F - 43.7 °F 89% 29.55 in 10.0 mi South 5.8 mph - N/A Rain Rain
6:33 PM 46.6 °F - 43.5 °F 89% 29.55 in 10.0 mi South 6.9 mph - N/A Rain Light Rain
6:54 PM 46.0 °F 43.1 °F 43.2 °F 90% 29.56 in 10.0 mi South 5.8 mph - N/A Rain Light Rain
7:13 PM 45.7 °F 44.4 °F 43.2 °F 91% 29.56 in 10.0 mi South 3.5 mph - N/A Rain Light Rain
7:33 PM 45.3 °F - 43.0 °F 92% 29.56 in 10.0 mi Calm Calm - N/A Rain Light Rain
7:54 PM 45.3 °F - 43.0 °F 92% 29.56 in 10.0 mi Calm Calm - N/A Rain Light Rain
8:13 PM 45.0 °F 43.5 °F 42.6 °F 91% 29.56 in 10.0 mi SSE 3.5 mph - N/A   Light Drizzle
8:33 PM 45.0 °F - 42.6 °F 91% 29.56 in 10.0 mi Calm Calm - N/A   Drizzle
8:54 PM 45.0 °F - 42.6 °F 91% 29.56 in 10.0 mi Calm Calm - N/A   Drizzle
9:14 PM 45.0 °F - 42.8 °F 92% 29.56 in 10.0 mi Calm Calm - N/A Rain Light Rain
9:33 PM 45.0 °F - 43.0 °F 93% 29.56 in 10.0 mi Calm Calm - N/A   Drizzle
9:54 PM 45.0 °F - 43.0 °F 93% 29.56 in 10.0 mi Calm Calm - N/A   Drizzle
10:13 PM 45.1 °F - 43.0 °F 92% 29.57 in 10.0 mi Calm Calm - N/A   Drizzle
10:33 PM 45.0 °F 42.6 °F 43.0 °F 93% 29.57 in 10.0 mi SW 4.6 mph - N/A   Overcast
10:54 PM 45.0 °F 43.5 °F 43.0 °F 93% 29.57 in 10.0 mi SW 3.5 mph - N/A   Overcast
11:13 PM 45.0 °F 41.8 °F 42.8 °F 92% 29.57 in 10.0 mi SW 5.8 mph - N/A   Overcast
11:34 PM 44.4 °F 42.0 °F 42.4 °F 93% 29.57 in 10.0 mi SW 4.6 mph - N/A   Overcast
11:54 PM 44.4 °F 42.9 °F 42.4 °F 93% 29.57 in 10.0 mi SW 3.5 mph - N/A   Overcast